Location: Chenereilles
(45.4866°N, 4.0790°E)
Time: 17:12:16
(UTC+00:00)

CSL-04 Rocket - Pass Details

Date: 12 November 2019
Orbit: 806 x 860 km, 99.0° (Epoch: 11 December)

Event Time Altitude Azimuth Distance (km) Brightness Sun altitude
Rises 17:36:12 0° 147° (SSE) 3,368 6.6 -14.0°
Reaches altitude 10° 17:38:37 10° 142° (SE) 2,430 5.8 -14.4°
Maximum altitude 17:43:46 50° 69° (ENE) 1,045 3.8 -15.3°
Drops below altitude 10° 17:48:54 10° 355° (N) 2,415 6.0 -16.2°
Sets 17:51:17 0° 351° (N) 3,345 6.8 -16.6°
